Theta_e
310 305 302 305 307 306 304 303 303 305 307 307 307 307 309 312 314 313 316 319 320 322 326 329 330 330 331 331 329 328 328 331 328 324 323 322 321 324 324 325 328 328 327 327
307 304 306 307 306 305 305 303 302 304 307 307 306 305 310 312 313 315 317 319 320 322 325 327 327 327 323 325 326 326 326 328 327 324 326 325 326 325 325 325 327 328 326 326
304 306 307 306 305 304 304 303 302 302 304 307 306 304 307 311 313 316 318 320 321 321 323 324 324 323 320 321 323 324 326 327 328 328 324 324 324 323 321 322 322 324 324 324
306 307 305 305 303 305 302 305 303 302 302 299 305 296 305 309 311 314 316 319 320 322 322 322 319 318 317 318 319 322 325 326 325 327 324 324 320 316 318 318 319 320 322 321
304 304 304 303 304 305 303 305 304 304 303 302 302 298 304 308 307 311 315 317 318 319 318 316 316 317 317 318 319 322 324 324 325 325 324 319 319 317 316 316 321 323 322 320
307 310 308 307 306 306 306 305 306 306 303 296 301 298 300 304 307 311 314 316 316 316 316 315 316 317 319 319 319 320 320 321 321 320 321 320 319 318 315 315 314 314 314 315
305 305 308 308 305 307 306 305 297 295 295 295 300 297 300 306 307 311 313 314 315 315 315 314 314 314 317 317 318 318 317 317 318 318 317 318 318 318 316 316 313 313 311 312
300 298 304 307 305 304 303 303 296 289 292 295 300 294 301 306 309 312 313 315 315 314 314 313 314 315 315 316 317 316 316 316 316 316 315 316 317 313 312 314 313 311 311 314
301 300 306 305 307 306 303 301 304 299 300 294 298 300 304 306 307 308 309 311 312 313 313 313 315 316 315 316 316 315 315 315 315 314 314 314 314 313 312 314 314 313 315 315
306 299 304 305 306 305 305 305 299 301 290 289 295 295 297 302 304 307 308 309 312 313 313 314 315 315 316 316 316 316 316 314 314 313 313 313 311 312 313 313 312 313 313 313
308 305 302 304 302 301 303 301 300 299 297 291 290 297 304 304 305 306 307 309 311 312 313 314 314 315 315 316 315 315 314 313 312 312 312 311 310 311 311 309 310 309 308 311
308 307 301 300 302 303 303 301 300 296 293 296 295 295 306 305 306 307 307 309 310 312 313 313 313 313 314 314 314 314 313 312 311 311 309 309 311 310 308 309 307 308 307 308
308 304 299 298 301 303 301 301 302 299 299 294 291 295 304 306 306 307 307 309 310 311 311 311 312 311 312 312 312 312 312 310 310 308 308 310 310 307 306 308 306 305 305 305
308 305 301 296 299 301 298 298 300 299 295 295 295 296 300 303 304 306 308 309 309 309 309 309 310 311 311 311 312 311 310 309 308 307 309 307 305 305 305 305 305 305 304 303
309 302 302 302 300 300 299 298 298 297 299 294 296 296 301 304 305 306 307 307 307 307 308 308 308 309 309 311 309 307 307 307 307 308 306 304 304 305 305 305 304 303 303 303
307 302 302 299 300 299 296 298 299 299 298 298 298 298 305 307 307 305 306 306 305 306 307 308 309 309 308 307 306 305 304 304 305 304 303 303 302 304 305 306 304 303 303 304
304 303 299 295 296 296 294 298 298 298 300 300 296 302 306 304 304 305 305 306 305 306 306 305 306 304 306 305 304 303 303 302 303 302 302 301 302 305 306 306 305 306 306 308
303 302 300 295 296 288 298 302 302 300 301 303 303 304 304 304 305 306 308 307 306 305 302 302 301 300 302 303 302 305 302 302 301 300 301 302 305 305 306 306 307 309 309 308
306 303 298 294 295 297 298 300 300 299 298 304 302 303 303 305 305 303 308 308 305 304 303 300 299 298 300 301 302 299 302 300 300 301 304 305 305 306 306 307 308 310 309 309
303 304 299 296 291 288 299 302 305 304 296 303 304 303 303 304 297 301 307 306 304 303 300 301 299 298 299 299 300 301 299 299 300 304 305 306 307 307 307 309 307 309 309 308
298 299 295 295 294 297 303 304 305 292 297 305 305 304 304 302 304 305 306 304 302 299 299 300 299 298 298 298 301 299 301 301 304 305 303 308 307 307 308 309 308 309 309 309
297 296 296 298 293 289 305 304 297 303 306 305 306 306 306 307 306 305 303 301 298 297 298 298 296 297 301 301 301 300 303 305 306 307 307 307 307 306 307 308 309 308 308 307
297 302 301 299 299 307 307 304 307 308 305 306 307 308 307 305 304 302 301 299 297 297 297 298 298 299 299 302 305 303 304 307 307 305 305 307 306 307 308 307 307 306 307 305
301 303 301 298 300 301 303 305 306 308 308 309 308 306 305 303 302 301 299 298 297 297 297 298 298 298 299 303 303 305 306 307 307 306 305 305 305 306 308 306 308 305 305 305
300 300 295 296 299 301 303 306 307 308 308 307 306 305 303 301 301 297 299 296 296 297 298 299 298 300 301 303 305 306 306 306 305 305 305 304 303 305 306 305 305 305 304 300
301 297 298 297 302 302 303 307 307 306 305 304 302 301 302 299 297 299 297 297 297 298 299 298 301 300 300 302 305 305 306 306 305 304 304 303 302 302 305 307 303 293 295 294
Wind_Speed
5 10 13 16 8 6 5 5 8 6 3 2 1 1 4 4 1 7 10 12 13 11 10 10 7 4 4 6 7 9 10 11 10 9 10 10 11 11 10 10 12 13 12 14
10 3 4 1 5 7 7 7 4 5 3 7 4 3 2 3 1 5 10 12 13 12 12 9 6 4 5 5 7 8 9 10 9 8 8 9 9 11 10 11 11 14 15 17
7 9 5 7 8 8 3 5 3 6 4 5 6 11 7 4 5 5 9 11 13 13 11 8 6 2 3 6 7 7 8 9 9 10 9 9 10 11 11 11 13 13 16 18
5 5 6 7 4 7 7 2 2 3 7 8 6 8 10 8 8 10 11 12 12 10 8 7 5 2 3 5 4 6 7 9 9 9 10 12 12 13 12 13 13 13 17 19
7 5 6 7 3 4 7 2 4 6 11 8 13 9 11 9 10 12 13 14 11 10 9 7 3 2 3 3 6 6 8 9 10 11 12 13 15 14 14 14 17 16 16 17
5 1 3 6 3 1 6 7 9 9 9 12 4 6 9 10 13 14 14 14 12 10 7 4 2 1 1 4 6 7 8 9 12 14 16 17 18 17 15 16 15 14 13 13
3 3 4 2 6 5 7 8 8 7 8 5 5 7 7 1 1 10 15 14 11 7 7 6 6 5 3 6 7 8 10 13 14 16 17 18 18 18 19 17 13 12 12 13
5 7 3 2 4 7 4 6 7 10 11 11 9 7 7 5 6 2 4 11 8 7 7 6 3 6 7 5 8 10 13 15 16 17 18 17 18 12 13 13 13 12 13 11
4 3 5 4 1 5 6 6 7 10 11 10 7 4 9 6 6 4 4 3 7 7 6 6 6 7 7 8 9 11 14 16 17 19 17 17 15 13 13 14 15 12 15 11
1 8 4 5 3 4 6 4 6 5 6 10 3 4 5 6 3 4 6 4 7 5 6 7 7 7 7 8 10 11 14 17 18 19 16 15 15 14 12 13 14 16 13 13
3 5 7 5 2 7 5 6 3 6 6 9 9 3 8 7 7 9 11 9 7 5 8 8 9 10 10 12 12 13 15 18 18 18 17 16 15 13 12 10 11 7 9 10
3 5 7 4 3 2 4 3 4 5 5 4 7 7 7 6 8 7 6 3 5 8 11 13 14 15 14 13 13 15 15 17 18 18 14 14 13 12 10 10 10 10 9 9
1 3 7 8 8 5 6 3 2 4 5 10 10 3 4 4 8 6 8 9 9 10 13 15 15 16 15 14 11 14 16 17 19 15 14 14 11 9 7 10 8 8 8 8
4 5 10 10 9 5 5 6 6 6 6 10 9 12 9 11 5 5 7 10 13 13 15 15 16 17 15 8 11 14 17 18 16 13 13 10 8 6 8 7 7 7 6 6
4 8 5 7 6 8 11 10 9 11 11 8 10 9 9 9 9 10 12 15 16 18 18 17 17 18 17 14 12 15 16 15 14 14 8 7 6 7 7 7 7 6 6 6
1 5 7 11 7 11 13 11 8 10 10 9 11 11 6 7 7 12 16 19 18 18 19 20 21 21 18 12 13 14 12 11 13 8 8 7 5 5 5 6 4 4 6 7
4 3 6 10 2 8 11 4 4 3 4 7 9 11 10 9 14 16 19 16 15 19 21 20 21 18 16 15 12 12 10 9 8 7 6 4 4 7 6 5 7 7 7 7
4 5 5 6 6 5 7 2 4 6 4 4 7 9 8 14 16 19 13 15 18 20 20 20 18 16 13 12 11 10 7 7 6 4 4 5 7 8 6 4 5 6 6 7
6 6 3 3 3 8 8 3 2 6 9 7 5 9 15 16 16 7 15 17 18 20 19 18 15 16 12 11 10 8 5 4 2 2 4 7 8 8 9 8 8 8 7 5
6 6 5 4 4 5 9 5 2 4 6 6 9 14 16 16 13 13 18 18 18 17 14 16 14 12 11 11 8 5 4 1 3 8 9 8 6 6 7 7 7 6 5 6
5 6 9 7 5 5 4 2 3 5 6 11 12 13 13 12 11 14 16 16 15 12 14 15 14 11 10 8 5 5 2 6 6 5 6 7 5 6 7 8 5 6 7 7
4 4 4 4 5 4 3 3 5 9 10 12 11 12 11 13 14 15 16 15 12 13 13 12 10 10 7 5 5 4 2 4 4 5 4 7 7 8 8 9 8 5 7 8
3 4 3 3 4 5 3 5 6 8 10 9 11 11 10 13 14 15 14 11 10 11 10 9 8 7 8 3 4 7 7 7 7 8 6 8 9 9 8 6 6 5 8 8
3 1 3 3 4 1 4 5 6 7 8 8 7 9 12 14 14 13 11 9 9 8 8 7 5 6 3 5 7 9 9 8 7 8 9 7 7 8 9 7 8 9 9 8
5 1 2 5 4 5 4 7 7 5 5 7 9 11 12 13 13 11 9 8 8 7 6 4 4 3 7 7 9 7 7 6 6 7 6 7 6 6 8 11 10 9 11 11
2 1 2 2 6 6 6 6 7 7 8 9 11 12 12 12 10 11 9 6 6 4 3 4 3 7 5 5 7 6 6 7 7 6 7 8 7 6 8 5 8 8 9 12
Wind_Direction
194 230 216 222 233 329 251 240 176 105 89 239 346 290 25 19 120 180 187 171 181 159 147 145 123 118 103 51 30 19 13 11 356 349 341 339 336 329 323 325 322 327 327 331
205 212 65 62 201 198 203 197 154 128 119 273 206 232 68 50 95 185 178 178 168 162 164 145 145 121 77 41 20 17 12 2 349 336 334 325 312 315 314 299 313 317 320 322
307 92 140 185 169 181 200 279 156 326 153 239 229 221 200 129 145 166 181 177 177 178 160 164 157 111 25 34 23 14 353 340 331 324 309 308 306 301 306 312 315 309 319 310
52 121 180 192 173 276 212 119 229 222 248 292 205 291 178 173 171 184 179 184 177 158 166 164 176 161 76 41 20 355 336 323 318 323 316 318 300 305 320 298 310 317 306 311
85 161 186 230 31 279 47 171 268 279 273 297 199 247 112 172 201 193 189 188 171 180 180 179 183 93 70 24 356 328 322 320 322 316 310 309 307 313 310 310 310 309 294 295
76 84 301 19 102 334 135 225 234 251 261 245 97 272 180 174 224 190 192 189 187 188 190 196 152 128 332 294 314 328 321 319 319 320 313 309 304 303 305 308 299 296 325 307
176 118 119 266 203 179 230 256 283 251 209 293 106 263 297 271 217 201 193 192 191 196 208 216 224 247 293 305 324 315 328 324 329 324 318 313 309 305 300 305 312 312 304 306
271 192 189 22 328 344 333 320 297 305 304 318 157 255 89 23 68 21 296 186 182 212 222 242 261 281 296 312 308 325 328 332 331 328 324 318 313 312 308 303 306 312 304 311
264 204 125 51 292 303 115 259 16 287 250 263 269 113 162 128 122 130 120 175 213 223 241 252 266 272 286 309 320 330 335 329 332 329 323 316 316 316 305 306 308 299 310 305
21 266 199 126 245 93 310 29 253 227 287 301 261 244 324 98 94 142 191 233 228 242 260 262 275 285 298 309 319 329 331 332 330 326 319 316 323 309 312 324 326 319 311 325
276 257 139 193 232 338 217 230 230 301 290 292 300 37 50 54 36 355 335 356 346 297 282 289 298 310 317 311 314 327 331 328 325 323 322 317 318 317 322 319 324 316 318 317
48 300 269 353 42 277 296 321 283 278 262 279 305 282 69 38 356 343 347 345 342 320 316 317 318 312 297 297 310 326 327 324 326 321 323 316 319 319 335 320 341 327 331 337
96 221 256 190 182 178 250 181 291 292 274 271 283 308 101 22 341 345 330 327 307 307 309 311 306 314 310 310 323 330 320 327 321 334 318 311 329 349 325 333 331 334 337 337
286 266 271 273 353 346 239 227 252 264 275 274 278 309 352 8 347 312 303 321 315 314 308 311 318 315 317 327 345 315 329 323 329 313 320 8 356 339 337 326 329 345 347 347
304 266 275 282 289 281 282 285 249 249 258 273 296 305 335 354 344 335 321 316 324 322 326 324 320 325 321 338 338 329 322 336 325 323 12 350 337 345 339 346 353 351 334 326
190 256 278 273 259 277 281 272 258 260 274 272 280 282 41 341 306 321 327 329 321 334 330 330 325 325 335 327 320 320 342 335 336 351 346 3 355 316 347 352 10 303 297 287
262 253 265 285 345 291 266 278 235 235 250 301 298 1 341 333 337 329 321 318 342 333 334 328 324 319 325 314 335 328 344 321 319 345 1 1 322 314 334 338 315 356 356 348
224 238 265 289 282 257 76 67 322 307 323 294 302 341 342 333 336 319 15 355 338 333 331 322 326 325 325 325 326 356 317 334 356 354 15 319 321 345 336 337 344 10 23 24
243 227 240 248 236 270 162 123 12 357 324 44 356 341 334 330 320 308 19 351 340 336 340 332 327 328 317 318 356 307 8 9 5 359 348 350 348 5 356 12 17 18 22 25
190 241 183 233 255 289 69 114 26 297 275 40 344 331 328 328 316 342 355 341 338 349 332 337 334 332 326 355 319 338 43 71 40 353 348 1 10 9 12 31 29 9 26 32
173 205 224 218 256 302 78 142 259 263 20 341 333 325 322 323 336 327 341 336 358 334 335 335 340 330 321 313 334 65 125 29 336 355 351 349 15 21 9 1 13 12 19 20
241 205 195 228 255 262 93 178 299 4 328 321 328 321 331 329 325 335 334 348 348 336 339 339 332 330 351 51 82 99 58 1 3 52 47 26 14 14 20 23 23 21 23 19
241 337 343 296 23 63 19 343 5 322 309 324 330 343 330 319 329 330 338 348 338 334 338 337 340 43 48 74 56 42 37 16 31 66 35 29 17 11 9 20 35 22 22 12
147 34 256 304 86 359 325 331 336 344 340 350 342 331 331 327 327 331 332 344 337 336 338 342 53 61 85 56 52 42 33 21 37 35 32 27 26 25 30 23 16 29 25 22
37 249 320 271 293 302 147 23 353 349 347 334 337 335 328 327 330 333 333 328 324 332 349 72 85 99 70 68 63 49 37 20 30 27 24 5 7 54 67 51 25 54 48 27
162 12 248 345 21 315 26 11 5 348 349 346 333 328 342 338 330 334 328 319 320 339 83 113 153 85 83 77 52 35 13 12 359 352 8 13 349 351 68 88 93 67 75 53